Regional Weather Roundup
Issued by NWS

Home | Current Version | Previous Version | Graphics & Text | Print | Product List | Glossary On
Versions: 1 2 3 4 5 6 7 8 9 10 11 12 13 14 15 16 17 18 19 20 21 22 23 24 25 26 27 28 29 30 31 32 33 34 35 36 37 38 39 40 41 42 43 44 45 46 47 48 49 50
000
ASUS45 KABQ 021101
RWRNM
NEW MEXICO REGIONAL WEATHER ROUNDUP
NATIONAL WEATHER SERVICE ALBUQUERQUE NM
400 AM MST FRI DEC 02 2016

NOTE: "FAIR" MEANS FEW OR NO CLOUDS BELOW 12,000 FEET AGL WITH NO
       SIGNIFICANT WEATHER OR OBSTRUCTIONS TO VISION.

      THIS PRODUCT IS RELEASED AS TWO VERSIONS.  ONE VERSION NEAR
      THE TOP OF THE HOUR CONTAINING PRELIMINARY DATA FROM ALBUQUERQUE
      AND OTHER STATIONS.  A FINAL VERSION WITH ADDITIONAL DATA IS
      ISSUED ABOUT 10 MINUTES AFTER THE HOUR.

NMZ501-503-504-510>518-021200-
NORTHWEST PLATEAU/NORTHCENTRAL MOUNTAINS

CITY           SKY/WX    TMP DP  RH WIND       PRES   REMARKS
FARMINGTON     FAIR      23  16  74 E5        29.95F WCI  17
LOS ALAMOS     FAIR      29  13  49 CALM      29.98R
SANTA FE       MOCLDY    26  15  63 N10       29.97R WCI  16
TAOS           MOCLDY    18   7  62 NW3       29.97S
ANGEL FIRE     MOCLDY     9   6  86 SE5       29.99S WCI   1

$$
NMZ402-403-502-505>509-021200-
WESTCENTRAL MOUNTAINS/SOUTHWEST MOUNTAINS

CITY           SKY/WX    TMP DP  RH WIND       PRES   REMARKS
GALLUP         CLOUDY    24  20  84 W5        29.93S WCI  18
GRANTS         MOCLDY    24  20  86 SW5       29.95F WCI  18
SILVER CITY    FAIR      32  26  77 CALM      29.90

$$
NMZ407-409-411-412-021200-
SOUTHERN DESERTS

CITY           SKY/WX    TMP DP  RH WIND       PRES   REMARKS
DEMING         FAIR      28  19  69 CALM      29.90S
LAS CRUCES     FAIR      34  23  64 NW6       29.90F WCI  29
HOLLOMAN AFB   FAIR      31  14  49 NW6       29.94F WCI  25
T OR C         FAIR      36  14  40 N3        29.90F

$$
NMZ519>523-021200-
CENTRAL VALLEYS/CENTRAL HIGHLANDS

CITY           SKY/WX    TMP DP  RH WIND       PRES   REMARKS
ALBUQUERQUE    CLOUDY    31  17  56 NW7       29.95S WCI  24
DOUBLE EAGLE   CLOUDY    32  15  49 N9        29.94F WCI  24
MORIARTY ARPT  CLOUDY    25  17  69 NE3       29.98F
CLINES CORNERS CLOUDY    27  12  53 E9        29.98S WCI  18
BELEN          MOCLDY    30  16  56 CALM      29.95F
SOCORRO        FAIR      31  14  48 NW12      29.94F WCI  22

$$
NMZ524>526-539-540-021200-
SOUTHCENTRAL MOUNTAINS

CITY           SKY/WX    TMP DP  RH WIND       PRES   REMARKS
RUIDOSO        FAIR      34  14  44 CALM      29.97F

$$
NMZ527>531-021200-
NORTHEAST HIGHLANDS/NORTHEAST PLAINS

CITY           SKY/WX    TMP DP  RH WIND       PRES   REMARKS
LAS VEGAS      CLOUDY    22  13  68 N6        30.01R WCI  14
RATON          FAIR      18   9  68 NE8       30.00F WCI   8
CLAYTON        FAIR      26  16  65 N8        30.03F WCI  18

$$
NMZ532>537-021200-
EASTCENTRAL PLAINS

CITY           SKY/WX    TMP DP  RH WIND       PRES   REMARKS
TUCUMCARI      FAIR      30  16  56 E3        30.02R
CANNON AFB     FAIR      32  15  48 E13       29.99S WCI  23
CLOVIS AIRPORT FAIR      28  12  50 NE10      29.99F WCI  19

$$
NMZ028-029-538-021200-
SOUTHEAST PLAINS

CITY           SKY/WX    TMP DP  RH WIND       PRES   REMARKS
ROSWELL        FAIR      33  17  51 NW3       29.95R
ARTESIA        FAIR      34  19  55 NW9       29.95S WCI  26
CARLSBAD       FAIR      34  23  64 NW8       29.92F WCI  27
HOBBS          FAIR      32  25  74 N7        29.96S WCI  26


$$



USA.gov is the U.S. government's official web portal to all federal, state and local government web resources and services.